KD5UIG Weather Reports


time (UTC)temp
F
wind
direction
speed
knots
gust
knots
rain 1hr
in
rain 24hr
in
rain mn
in
humidity
%
barometer
mb
20260506020107 65 0 1.7 7.0 0.00 0.00 0.00 73 1007.8
20260506015555 66 138 2.6 7.0 0.00 0.00 0.00 73 1007.6
20260506015057 66 323 1.7 5.2 0.00 0.00 0.00 74 1007.5
20260506014604 66 0 0.0 5.2 0.00 0.00 0.00 74 1007.6
20260506014059 67 0 0.9 5.2 0.00 0.00 0.00 74 1007.6
20260506013555 67 0 0.0 2.6 0.00 0.00 0.00 73 1007.3
20260506013107 67 0 0.0 2.6 0.00 0.00 0.00 73 1007.1
20260506012555 67 333 0.0 3.5 0.00 0.00 0.00 72 1007.0
20260506012054 67 54 0.0 7.0 0.00 0.00 0.00 72 1007.0
20260506011617 67 61 0.9 7.0 0.00 0.00 0.00 72 1007.1
20260506011055 67 0 1.7 7.0 0.00 0.00 0.00 71 1006.7
20260506010555 68 22 0.9 4.3 0.00 0.00 0.00 71 1006.4
20260506010059 68 337 0.9 5.2 0.00 0.00 0.00 70 1006.2
20260506005558 68 34 1.7 5.2 0.00 0.00 0.00 70 1006.1
20260506005054 68 5 0.9 7.8 0.00 0.00 0.00 70 1006.3
20260506004558 68 38 1.7 7.8 0.00 0.00 0.00 70 1006.3
20260506004054 69 15 2.6 7.8 0.00 0.00 0.00 69 1006.3
20260506003555 69 325 1.7 9.6 0.00 0.00 0.00 69 1006.2
20260506003105 70 9 2.6 9.6 0.00 0.00 0.00 69 1006.1
20260506002623 70 12 1.7 5.2 0.00 0.00 0.00 69 1006.1
20260506002055 70 34 1.7 7.8 0.00 0.00 0.00 69 1005.9
20260506001556 71 307 1.7 7.8 0.00 0.00 0.00 68 1005.8
20260506001055 71 32 1.7 8.7 0.00 0.00 0.00 68 1005.8
20260506000555 71 26 2.6 8.7 0.00 0.00 0.00 67 1006.0
20260506000100 72 360 2.6 7.8 0.00 0.00 0.00 68 1006.1
20260505235554 72 351 1.7 7.8 0.00 0.00 0.00 67 1005.9
20260505235056 73 355 1.7 7.8 0.00 0.00 0.00 67 1005.7
20260505234556 73 355 1.7 7.8 0.00 0.00 0.00 67 1005.7
20260505234054 73 316 1.7 9.6 0.00 0.00 0.00 66 1005.7
20260505233555 73 14 2.6 9.6 0.00 0.00 0.00 65 1005.8
20260505233104 74 13 1.7 9.6 0.00 0.00 0.00 65 1005.6
20260505232555 74 360 2.6 9.6 0.00 0.00 0.00 65 1005.6
20260505232056 75 19 2.6 7.8 0.00 0.00 0.00 65 1005.6
20260505231611 75 336 1.7 7.8 0.00 0.00 0.00 64 1005.5
20260505231056 76 5 1.7 7.8 0.00 0.00 0.00 64 1005.7
20260505230555 77 5 3.5 13.0 0.00 0.00 0.00 62 1005.2
20260505230054 78 304 3.5 13.0 0.00 0.00 0.00 62 1005.5
20260505225555 78 36 2.6 9.6 0.00 0.00 0.00 61 1005.4
20260505225055 79 252 2.6 8.7 0.00 0.00 0.00 59 1005.6
20260505224603 80 19 2.6 8.7 0.00 0.00 0.00 59 1005.2
20260505224055 80 286 2.6 8.7 0.00 0.00 0.00 59 1005.1
20260505223554 81 30 1.7 7.0 0.00 0.00 0.00 58 1005.0
20260505223059 81 280 2.6 7.8 0.00 0.00 0.00 58 1004.9
20260505222557 82 277 2.6 7.8 0.00 0.00 0.00 57 1004.9
20260505222056 83 344 2.6 7.8 0.00 0.00 0.00 57 1004.9
20260505221603 83 355 1.7 7.8 0.00 0.00 0.00 57 1004.7
20260505221055 84 10 1.7 8.7 0.00 0.00 0.00 55 1004.5
20260505220555 85 305 2.6 10.4 0.00 0.00 0.00 54 1004.5
20260505215554 86 276 1.7 7.8 0.00 0.00 0.00 54 1004.4
20260505215055 86 352 1.7 7.8 0.00 0.00 0.00 53 1004.1
20260505214559 85 269 3.5 9.6 0.00 0.00 0.00 53 1004.1
20260505214058 84 287 1.7 9.6 0.00 0.00 0.00 54 1004.2
20260505213554 85 65 2.6 9.6 0.00 0.00 0.00 52 1004.3
20260505213059 86 187 3.5 9.6 0.00 0.00 0.00 52 1004.3
20260505212554 87 343 2.6 10.4 0.00 0.00 0.00 51 1004.3
20260505212054 87 281 3.5 10.4 0.00 0.00 0.00 51 1004.2
20260505211556 88 259 3.5 9.6 0.00 0.00 0.00 47 1004.4
20260505211053 89 282 3.5 11.3 0.00 0.00 0.00 46 1004.3
20260505210554 89 275 3.5 11.3 0.00 0.00 0.00 45 1004.3
20260505210055 88 320 2.6 10.4 0.00 0.00 0.00 43 1004.5
20260505205555 88 300 2.6 10.4 0.00 0.00 0.00 43 1004.5
20260505205054 88 290 1.7 11.3 0.00 0.00 0.00 44 1004.4
20260505204553 87 34 2.6 11.3 0.00 0.00 0.00 42 1004.6
20260505204054 88 260 6.1 13.0 0.00 0.00 0.00 42 1004.6
20260505203554 89 281 4.3 13.0 0.00 0.00 0.00 43 1004.6
20260505203117 90 270 4.3 13.0 0.00 0.00 0.00 43 1004.5
20260505202557 91 293 4.3 13.0 0.00 0.00 0.00 44 1004.5
20260505202056 91 277 1.7 8.7 0.00 0.00 0.00 48 1004.3
20260505201605 90 289 1.7 7.8 0.00 0.00 0.00 49 1004.4
20260505201054 89 273 2.6 7.8 0.00 0.00 0.00 48 1004.5
20260505200554 90 285 3.5 11.3 0.00 0.00 0.00 49 1004.8
20260505200057 90 291 2.6 11.3 0.00 0.00 0.00 54 1004.8
20260505195555 90 242 0.9 4.3 0.00 0.00 0.00 55 1004.7
20260505195053 90 206 0.9 7.0 0.00 0.00 0.00 61 1004.6
20260505194553 90 248 2.6 8.7 0.00 0.00 0.00 56 1004.6
20260505194054 90 180 1.7 8.7 0.00 0.00 0.00 60 1004.5
20260505193555 89 305 1.7 7.8 0.00 0.00 0.00 56 1004.5
20260505193053 90 240 2.6 7.8 0.00 0.00 0.00 55 1004.7
20260505192557 91 219 1.7 7.0 0.00 0.00 0.00 55 1004.8
20260505192054 90 0 1.7 9.6 0.00 0.00 0.00 55 1004.8
20260505191603 91 221 1.7 10.4 0.00 0.00 0.00 54 1004.6
20260505191055 92 221 2.6 10.4 0.00 0.00 0.00 55 1004.5
20260505190554 91 246 1.7 9.6 0.00 0.00 0.00 56 1004.6
20260505190057 89 0 2.6 10.4 0.00 0.00 0.00 57 1004.5
20260505185554 89 215 2.6 10.4 0.00 0.00 0.00 58 1004.5
20260505185055 88 270 3.5 10.4 0.00 0.00 0.00 56 1004.5
20260505184555 88 232 2.6 9.6 0.00 0.00 0.00 58 1004.5
20260505184055 88 234 2.6 9.6 0.00 0.00 0.00 57 1004.4
20260505183555 88 225 1.7 10.4 0.00 0.00 0.00 60 1004.4
20260505183053 88 180 3.5 12.2 0.00 0.00 0.00 60 1004.5
20260505182554 88 232 2.6 12.2 0.00 0.00 0.00 61 1004.7
20260505182054 88 180 3.5 8.7 0.00 0.00 0.00 60 1004.6
20260505181553 87 183 1.7 8.7 0.00 0.00 0.00 62 1004.6
20260505181055 86 172 3.5 8.7 0.00 0.00 0.00 63 1004.7
20260505180554 85 185 1.7 7.8 0.00 0.00 0.00 64 1004.7
20260505175555 85 175 2.6 8.7 0.00 0.00 0.00 62 1004.7
20260505175054 85 252 3.5 11.3 0.00 0.00 0.00 63 1004.7
20260505174555 85 229 2.6 11.3 0.00 0.00 0.00 65 1004.8
20260505174054 84 223 2.6 8.7 0.00 0.00 0.00 65 1004.7
20260505173554 83 216 2.6 13.0 0.00 0.00 0.00 66 1004.8
20260505173057 83 190 4.3 13.9 0.00 0.00 0.00 65 1004.7
20260505172553 83 155 5.2 13.9 0.00 0.00 0.00 66 1004.7
20260505172053 82 250 5.2 12.2 0.00 0.00 0.00 67 1004.6
20260505171552 82 237 4.3 10.4 0.00 0.00 0.00 66 1004.6
20260505171055 82 216 3.5 10.4 0.00 0.00 0.00 69 1004.7
20260505170555 81 173 3.5 8.7 0.00 0.00 0.00 69 1004.6
20260505170108 81 173 3.5 8.7 0.00 0.00 0.00 69 1004.7
20260505165554 80 207 2.6 7.8 0.00 0.00 0.00 71 1004.7
20260505165057 80 165 1.7 8.7 0.00 0.00 0.00 72 1004.8
20260505164554 79 180 1.7 13.0 0.00 0.00 0.00 72 1004.8
20260505164054 79 260 3.5 13.0 0.00 0.00 0.00 71 1004.5
20260505163554 79 213 3.5 13.0 0.00 0.00 0.00 71 1004.8
20260505163053 79 232 3.5 13.0 0.00 0.00 0.00 71 1004.7
20260505162554 79 226 3.5 8.7 0.00 0.00 0.00 72 1004.7
20260505162057 79 269 1.7 11.3 0.00 0.00 0.00 72 1004.7
20260505161613 78 180 2.6 11.3 0.00 0.00 0.00 72 1004.5
20260505161054 78 190 2.6 13.0 0.00 0.00 0.00 72 1004.6
20260505160555 78 150 4.3 13.0 0.00 0.00 0.00 71 1004.6
20260505153102 79 287 3.5 14.8 0.00 0.00 0.00 72 1004.2
20260505152556 79 232 4.3 10.4 0.00 0.00 0.00 71 1004.3
20260505152054 79 251 3.5 10.4 0.00 0.00 0.00 73 1004.4
20260505151604 78 234 4.3 12.2 0.00 0.00 0.00 74 1004.3
20260505151057 77 188 4.3 12.2 0.00 0.00 0.00 75 1004.2
20260505150554 76 186 4.3 12.2 0.00 0.00 0.00 75 1004.4
20260505140555 73 215 5.2 14.8 0.00 0.00 0.00 81 1004.0
20260505140105 73 352 5.2 14.8 0.00 0.00 0.00 82 1004.2
20260505124556 70 144 1.7 10.4 0.00 0.00 0.00 86 1003.9
20260505124055 69 196 2.6 10.4 0.00 0.00 0.00 86 1003.9
20260505123554 69 201 2.6 9.6 0.00 0.00 0.00 86 1003.8
20260505123054 69 224 4.3 9.6 0.00 0.00 0.00 86 1003.7
20260505122556 69 225 3.5 9.6 0.00 0.00 0.00 87 1003.5
20260505122054 69 189 4.3 9.6 0.00 0.00 0.00 86 1003.4
20260505121625 69 174 3.5 10.4 0.00 0.00 0.00 87 1003.3
20260505121055 69 169 3.5 10.4 0.00 0.00 0.00 86 1003.4
20260505120556 69 192 3.5 10.4 0.00 0.00 0.00 86 1003.3
20260505120057 69 164 3.5 12.2 0.00 0.00 0.00 86 1003.4
20260505115557 69 216 4.3 12.2 0.00 0.00 0.00 86 1003.5
20260505115058 69 219 2.6 8.7 0.00 0.00 0.00 86 1003.4
20260505114600 69 199 3.5 9.6 0.00 0.00 0.00 86 1003.3
20260505114055 69 256 3.5 9.6 0.00 0.00 0.00 86 1003.3
20260505113554 69 167 2.6 10.4 0.00 0.00 0.00 86 1003.3
20260505113101 69 224 3.5 10.4 0.00 0.00 0.00 86 1003.2
20260505112555 69 194 2.6 7.0 0.00 0.00 0.00 86 1003.3
20260505112055 69 164 1.7 7.0 0.00 0.00 0.00 86 1003.2
20260505111557 69 191 3.5 7.8 0.00 0.00 0.00 86 1003.2
20260505111055 69 175 2.6 7.8 0.00 0.00 0.00 85 1003.1
20260505110557 69 192 2.6 8.7 0.00 0.00 0.00 85 1003.2
20260505102056 70 163 2.6 14.8 0.00 0.00 0.00 83 1003.1
20260505101559 70 167 3.5 14.8 0.00 0.00 0.00 83 1003.3
20260505101056 70 207 3.5 8.7 0.00 0.00 0.00 83 1003.2
20260505100556 70 181 3.5 8.7 0.00 0.00 0.00 83 1003.3
20260505100101 70 195 2.6 11.3 0.00 0.00 0.00 82 1003.3
20260505095556 71 183 5.2 11.3 0.00 0.00 0.00 82 1003.4
20260505095056 71 180 2.6 13.0 0.00 0.00 0.00 82 1003.3
20260505094557 71 221 2.6 13.0 0.00 0.00 0.00 82 1003.3
20260505094055 71 179 3.5 13.0 0.00 0.00 0.00 81 1003.2
20260505093555 71 199 4.3 12.2 0.00 0.00 0.00 81 1003.1
20260505093056 71 211 3.5 11.3 0.00 0.00 0.00 81 1003.1
20260505092601 71 191 2.6 11.3 0.00 0.00 0.00 81 1003.1
20260505092055 71 151 2.6 14.8 0.00 0.00 0.00 80 1003.2
20260505091557 71 213 3.5 14.8 0.00 0.00 0.00 80 1003.3
20260505091059 71 15 3.5 14.8 0.00 0.00 0.00 80 1003.4
20260505090555 72 198 4.3 11.3 0.00 0.00 0.00 80 1003.5
20260505090105 72 197 3.5 12.2 0.00 0.00 0.00 80 1003.4
20260505085555 72 150 4.3 13.0 0.00 0.00 0.00 79 1003.6
20260505085055 72 161 4.3 13.0 0.00 0.00 0.00 79 1003.5
20260505084556 72 186 5.2 12.2 0.00 0.00 0.00 78 1003.5
20260505084056 72 211 4.3 11.3 0.00 0.00 0.00 78 1003.5
20260505083622 72 186 2.6 12.2 0.00 0.00 0.00 78 1003.5
20260505083100 72 91 4.3 15.6 0.00 0.00 0.00 77 1003.5
20260505082554 72 144 5.2 15.6 0.00 0.00 0.00 77 1003.6
20260505082055 73 200 3.5 14.8 0.00 0.00 0.00 77 1003.6
20260505081558 73 166 4.3 14.8 0.00 0.00 0.00 76 1003.6
20260505081058 73 215 5.2 13.9 0.00 0.00 0.00 76 1003.5
20260505080556 73 184 4.3 13.9 0.00 0.00 0.00 76 1003.6
20260505080055 73 147 5.2 13.0 0.00 0.00 0.00 76 1003.6
20260505075554 73 209 4.3 14.8 0.00 0.00 0.00 75 1003.6
20260505075054 73 168 3.5 15.6 0.00 0.00 0.00 75 1003.8
20260505074553 73 185 5.2 15.6 0.00 0.00 0.00 75 1003.8
20260505074054 73 169 2.6 11.3 0.00 0.00 0.00 75 1004.0
20260505073554 73 184 4.3 13.9 0.00 0.00 0.00 75 1004.0
20260505073053 73 192 3.5 13.9 0.00 0.00 0.00 74 1004.2
20260505072558 73 171 4.3 13.0 0.00 0.00 0.00 74 1004.3
20260505072054 73 153 2.6 13.0 0.00 0.00 0.00 74 1004.4
20260505071554 73 189 3.5 13.0 0.00 0.00 0.00 73 1004.5
20260505071055 73 194 4.3 13.0 0.00 0.00 0.00 73 1004.5
20260505070555 73 157 2.6 9.6 0.00 0.00 0.00 73 1004.5
20260505070054 74 177 3.5 13.0 0.00 0.00 0.00 73 1004.5
20260505065555 74 182 2.6 13.0 0.00 0.00 0.00 73 1004.6
20260505065054 74 200 3.5 9.6 0.00 0.00 0.00 73 1004.7
20260505064558 74 209 3.5 8.7 0.00 0.00 0.00 73 1004.8
20260505064054 74 182 1.7 11.3 0.00 0.00 0.00 72 1004.9
20260505063556 74 228 2.6 12.2 0.00 0.00 0.00 72 1005.0
20260505063055 74 202 4.3 12.2 0.00 0.00 0.00 72 1005.0
20260505062554 74 182 4.3 13.9 0.00 0.00 0.00 72 1005.0
20260505062053 74 158 4.3 13.9 0.00 0.00 0.00 72 1005.0
20260505061557 74 188 3.5 12.2 0.00 0.00 0.00 73 1004.9
20260505061054 74 210 3.5 10.4 0.00 0.00 0.00 73 1005.1
20260505060554 74 200 3.5 10.4 0.00 0.00 0.00 73 1005.1
20260505060059 74 198 3.5 8.7 0.00 0.00 0.00 73 1005.1
20260505055554 73 203 1.7 11.3 0.00 0.00 0.00 73 1005.1
20260505055055 73 169 3.5 11.3 0.00 0.00 0.00 74 1005.1
20260505054558 73 215 2.6 7.8 0.00 0.00 0.00 74 1005.1
20260505054054 73 187 1.7 7.0 0.00 0.00 0.00 74 1005.1
20260505053555 73 185 1.7 8.7 0.00 0.00 0.00 74 1005.0
20260505053108 73 231 2.6 8.7 0.00 0.00 0.00 74 1005.1
20260505052557 73 209 0.9 8.7 0.00 0.00 0.00 74 1005.0
20260505052054 73 188 1.7 11.3 0.00 0.00 0.00 74 1005.1
20260505051607 73 0 0.9 11.3 0.00 0.00 0.00 75 1005.0
20260505051055 73 180 0.9 7.8 0.00 0.00 0.00 75 1005.1
20260505050554 73 0 1.7 7.8 0.00 0.00 0.00 75 1005.1
20260505041559 73 221 1.7 13.9 0.00 0.00 0.00 73 1005.4
20260505041054 74 202 2.6 13.9 0.00 0.00 0.00 73 1005.4
20260505040557 74 211 1.7 7.8 0.00 0.00 0.00 73 1005.5
20260505040056 74 208 1.7 9.6 0.00 0.00 0.00 73 1005.4
20260505035555 74 157 1.7 10.4 0.00 0.00 0.00 72 1005.4
20260505035054 74 214 1.7 11.3 0.00 0.00 0.00 72 1005.4
20260505034552 74 184 3.5 12.2 0.00 0.00 0.00 72 1005.5
20260505034054 74 222 2.6 12.2 0.00 0.00 0.00 72 1005.5
20260505033554 74 229 2.6 10.4 0.00 0.00 0.00 72 1005.5
20260505033115 74 227 2.6 10.4 0.00 0.00 0.00 72 1005.4
20260505032554 74 167 1.7 7.0 0.00 0.00 0.00 72 1005.3
20260505032054 74 215 0.9 11.3 0.00 0.00 0.00 72 1005.2
20260505031556 74 192 1.7 11.3 0.00 0.00 0.00 72 1005.3
20260505031058 74 229 1.7 10.4 0.00 0.00 0.00 72 1005.4
20260505030557 74 0 1.7 7.8 0.00 0.00 0.00 72 1005.5
20260505030056 74 193 0.9 6.1 0.00 0.00 0.00 72 1005.4
20260505025554 74 0 1.7 7.0 0.00 0.00 0.00 72 1005.4
20260505025054 74 186 0.9 7.0 0.00 0.00 0.00 72 1005.5
20260505024609 74 174 1.7 7.8 0.00 0.00 0.00 72 1005.5
20260505024054 74 238 1.7 7.8 0.00 0.00 0.00 72 1005.5
20260505023554 74 153 0.0 7.8 0.00 0.00 0.00 72 1005.6
20260505023107 74 211 0.9 7.8 0.00 0.00 0.00 72 1005.4
20260505022554 74 168 1.7 7.0 0.00 0.00 0.00 72 1005.5
20260505022057 74 0 0.9 7.8 0.00 0.00 0.00 71 1005.5
20260505021556 74 214 0.9 7.8 0.00 0.00 0.00 71 1005.6
20260505021054 74 0 1.7 7.8 0.00 0.00 0.00 71 1005.5
20260505020554 74 185 2.6 10.4 0.00 0.00 0.00 71 1005.5